カタログに戻る

STARLINK-32883

運用中通信VLEO
NORAD 62806·PAYLOAD·🇺🇸 United States

打ち上げ Jan 24, 2025 から Vandenberg Space Force Base

Loading…

次のパス (今後24時間)

TLE

最新Source: CelesTrak SupGP

元期: Sep 15, 2026, 02:32 UTC

1 62806C 25018A   26258.10604167  .00003380  00000+0  99887-4 0  2582
2 62806  53.1571 146.5819 0001300  87.3003 287.8844 15.34384344    16

AllMySatでSTARLINK-32883をリアルタイム追跡

Download on the App Store